sat.trackr.live / text

‹ back to catalog

STARLINK-37779

NORAD 69350 · 2026-122X

PAYLOAD ACTIVE UNKNOWN

§ Identity

Operator
Country
US
Launch date
2026-06-03
Launch site
AFWTR
Launch vehicle
Mass (kg)
RCS (m²)

Purposes: comms

External: N2YO · Heavens-Above · Gunter

§ Orbital elements

Epoch: 2026-09-19T07:54:56.364192Z

Period
93.91 min
Inclination
97.2806°
Eccentricity
0.0001683
Mean motion
15.33453233 rev/d
Perigee alt
464.4 km
Apogee alt
466.7 km
Semi-major
6,843.7 km
B*
3.3064e-4
RAAN
291.0226°
Arg perigee
97.8317°
Mean anomaly
262.3117°
Rev number
1,662

§ Raw data

STARLINK-377791 69350U 26122X   26262.32981903  .00010617  00000+0  33064-3 0  99922 69350  97.2806 291.0226 0001683  97.8317 262.3117 15.33453233 16621

JSON: /api/v1/satellites/69350 · /tle

For live sub-satellite position, see the globe view (requires WebGL).

§ Visibility from observer

Set your observer location to see the next 7 days of passes ≥ 10°. The values pass through the URL so the page stays shareable.

No JS? Fill the form by hand. The geolocation button needs JavaScript.